FENGYUN 1C DEB, 35091

Orbit data source: Space-Track

FENGYUN 1C DEB, 35091 is space debris in SSO originally from a launch on Mon, 10 May 1999 UTC launched from the Taiyaun Space Center, China (TSC). Fengyun 1C debris stems from the Chinese weather satellite Fengyun-1C, which was intentionally destroyed by a Chinese anti-satellite missile in 2007. This event dramatically increased the amount of space debris, with thousands of trackable fragments posing hazards to satellites and human spaceflight. The Fengyun 1C debris cloud has become a focal point in discussions about space sustainability and the need for international regulations to prevent the creation of new debris.

Loading next visibility...
Identifier
35091, 1999-025DJT
Orbit
SSO
Country
Flag of CNCN / PRC
Related business
Manufacturer
Unknown
Mission
Spacecraft
Bus & Motor
Unknown
Mass
Unknown
Launch date (UTC)
1999-05-10 (27 years ago)
Launch vehicle
Unknown
Launch site
Taiyaun Space Center, China (TSC)
Object type
Payload
Rocket body
Debris
Shape & HBR
Unknown shape, 0.1 m
Radar Cross Section
Small (<0.1 m²)

Expand to show TLE details & history
Last TLE update: 1 day ago

TLE from 1 day ago
0 FENGYUN 1C DEB
1 35091U 99025DJT 25346.25356064  .00020750  00000-0  41103-2 0  9999
2 35091  98.5951  90.5287 0048440 293.3401  66.2706 14.61542720899207
Epoch: 2025-12-12T06:05Z
TLE epoch observation values (Epoch: 2025-12-12T06:05:07.639Z)
Latitude
-0.00003°
Longitude
-81.95096°
Altitude
677.534 km
Speed
7.525 km/s
True Right ascension
06h 02m 06s
True Declination
0° 00' 00"
Sunlit
Object was in full shadow at epoch
Visualization orbit readout
Latitude
Unknown
Longitude
Unknown
Altitude
Unknown
Speed
Unknown
Apparent Right ascension
Unknown
Apparent Declination
Unknown
Sunlit
N/A
Visualization observer readout
Local Sidereal Time
10:38:11
Azimuth
Unknown
Elevation
Unknown
Doppler factor
Unknown
Orbital elements
Apogee altitude
719.51 km
Perigee altitude
651.079 km
Semi-major axis
7,063.432 km
Eccentricity
0.00484
Inclination
98.5951°
RAAN
90.5287°
Arg. of periapsis
293.3401°
True anomaly
66.77999°
Mean anomaly
66.2706°
Eccentric anomaly
66.52517°
Mean motion
3.65611 °/min
Orbital period
98.47 mins
BSTAR
0.0041103
Loading maneuver chart data...
Computing Atmospheric mass density...

Documentation

Showing up to 5 results
|